This demonstration page uses our WeatherBlox Daily Observations layout. Learn more.

41.55636, -103.73856

Hourly Observations for August 1, 2018

Temp ( °F °C ) Dew Point ( °F °C ) Humidity (%) Winds ( mph kmh ) Pressure ( in mb ) Visibility ( mi km ) Precip ( " mm )
12:58 am 00:58 Clear 63 17 48 9 59 59 Calm 30.06 1018 10 16.09344 0 0
1:58 am 01:58 Clear 58 14.7 49 9.4 71 71 NW 3 6 30.06 1018 10 16.09344 0 0
2:58 am 02:58 Clear 54 12.3 49 9.5 83 83 N 6 9 30.03 1017 10 16.09344 0 0
3:58 am 03:58 Clear 55 12.9 49 9.3 79 79 N 3 6 30.03 1017 10 16.09344 0 0
4:58 am 04:58 Mostly Clear 54 12 48 9 82 82 WNW 6 9 30.03 1017 10 16.09344 0 0
5:58 am 05:58 Mostly Cloudy 54 12.4 49 9.3 82 82 NW 3 6 30.06 1018 10 16.09344 0 0
6:58 am 06:58 Partly Cloudy 56 13.5 51 10.6 83 83 WNW 7 11 30.06 1018 10 16.09344 0 0
7:58 am 07:58 Mostly Sunny 66 19 55 13 68 68 Calm 30.06 1018 10 16.09344 0 0
8:58 am 08:58 Sunny 71 21.7 52 11.1 51 51 Calm 30.06 1018 10 16.09344 0 0
9:58 am 09:58 Mostly Sunny 75 24.1 48 8.7 38 38 E 6 9 30.06 1018 10 16.09344 0 0
10:58 am 10:58 Mostly Sunny 77 25 45 7 32 32 E 7 11 30.06 1018 10 16.09344 0 0
11:58 am 11:58 Mostly Sunny 77 25 43 6 30 30 ENE 10 17 30.06 1018 10 16.09344 0 0
12:58 pm 12:58 Sunny 79 26 46 8 32 32 E 10 17 30.03 1017 10 16.09344 0 0
1:58 pm 13:58 Mostly Sunny 79 26 43 6 28 28 ESE 7 11 30.03 1017 10 16.09344 0 0
2:58 pm 14:58 Mostly Sunny 79 26 41 5 26 26 ESE 8 13 30.03 1017 10 16.09344 0 0
3:58 pm 15:58 Sunny 78 25.8 47 8.2 33 33 ESE 8 13 30.03 1017 10 16.09344 0 0
4:58 pm 16:58 Mostly Sunny 77 25 48 9 36 36 SE 7 11 30.03 1017 10 16.09344 0 0
5:58 pm 17:58 Sunny 75 24 54 12 47 47 SSE 6 9 30.03 1017 10 16.09344 0 0
6:58 pm 18:58 Mostly Sunny 73 22.9 54 12.2 51 51 SW 9 15 30.03 1017 10 16.09344 0 0
7:58 pm 19:58 Mostly Sunny 72 22 50 10 47 47 Calm 30 1016 10 16.09344 0 0
8:58 pm 20:58 Clear 67 19.7 50 10.2 54 54 S 6 9 30 1016 10 16.09344 0 0
9:58 pm 21:58 Clear 62 16.8 49 9.6 63 63 SW 6 9 30.03 1017 10 16.09344 0 0
10:58 pm 22:58 Clear 60 15.6 49 9.7 68 68 WSW 8 13 30 1016 10 16.09344 0 0
11:58 pm 23:58 Clear 57 13.8 51 10.3 80 80 WSW 7 11 30.03 1017 10 16.09344 0 0

Powered by AerisWeather